| time (UTC) | temp C | wind direction | speed KPH | gust KPH | rain 1hr cm | rain 24hr cm | rain mn cm | humidity % | barometer mb |
| 20260503025437 | 14 | 102 | 1.6 | 4.8 | 0.03 | 1.73 | 0.03 | 97 | 1012.5 |
| 20260503024934 | 14 | 71 | 3.2 | 4.8 | 0.03 | 1.73 | 0.03 | 97 | 1012.4 |
| 20260503024433 | 14 | 193 | 3.2 | 6.4 | 0.03 | 1.73 | 0.03 | 97 | 1012.7 |
| 20260503023933 | 14 | 175 | 3.2 | 6.4 | 0.03 | 1.73 | 0.03 | 97 | 1012.8 |
| 20260503023438 | 14 | 185 | 1.6 | 4.8 | 0.03 | 1.73 | 0.03 | 97 | 1012.7 |
| 20260503022934 | 14 | 170 | 1.6 | 4.8 | 0.03 | 1.73 | 0.03 | 97 | 1012.8 |
| 20260503022432 | 14 | 216 | 3.2 | 4.8 | 0.03 | 1.73 | 0.03 | 97 | 1012.9 |
| 20260503021934 | 14 | 203 | 3.2 | 4.8 | 0.03 | 1.73 | 0.03 | 97 | 1013.0 |
| 20260503021433 | 14 | 176 | 3.2 | 6.4 | 0.03 | 1.73 | 0.03 | 97 | 1013.0 |
| 20260503020933 | 14 | 209 | 3.2 | 8.0 | 0.03 | 1.73 | 0.03 | 97 | 1012.9 |
| 20260503020439 | 14 | 170 | 3.2 | 8.0 | 0.00 | 1.70 | 0.00 | 97 | 1012.9 |
| 20260503015933 | 14 | 182 | 1.6 | 4.8 | 0.00 | 1.70 | 0.00 | 97 | 1013.0 |
| 20260503015433 | 14 | 175 | 1.6 | 4.8 | 0.00 | 1.70 | 0.00 | 97 | 1013.0 |
| 20260503014935 | 13 | 166 | 1.6 | 3.2 | 0.00 | 1.70 | 0.00 | 97 | 1013.0 |
| 20260503014510 | 13 | 166 | 1.6 | 4.8 | 0.00 | 1.70 | 0.00 | 97 | 1012.9 |
| 20260503013424 | 13 | 161 | 1.6 | 6.4 | 0.00 | 1.70 | 0.00 | 97 | 1012.9 |
| 20260503012925 | 13 | 161 | 1.6 | 6.4 | 0.00 | 1.70 | 0.00 | 97 | 1012.9 |
| 20260503012428 | 13 | 120 | 1.6 | 8.0 | 0.00 | 1.70 | 0.00 | 97 | 1012.8 |
| 20260503011957 | 13 | 120 | 1.6 | 8.0 | 0.00 | 1.70 | 0.00 | 97 | 1012.8 |
| 20260503010925 | 13 | 119 | 1.6 | 8.0 | 0.00 | 1.70 | 0.00 | 97 | 1012.8 |
| 20260503010429 | 13 | 120 | 3.2 | 8.0 | 0.00 | 1.70 | 0.00 | 97 | 1012.8 |
| 20260503010038 | 13 | 111 | 3.2 | 6.4 | 0.00 | 1.70 | 0.00 | 97 | 1012.9 |
| 20260503004558 | 13 | 91 | 1.6 | 3.2 | 0.00 | 1.70 | 0.00 | 97 | 1013.0 |
| 20260503002451 | 13 | 58 | 1.6 | 4.8 | 0.00 | 1.70 | 0.00 | 96 | 1013.0 |
| 20260503001417 | 13 | 57 | 4.8 | 6.4 | 0.00 | 1.70 | 0.00 | 96 | 1012.9 |
| 20260503000915 | 13 | 74 | 4.8 | 9.7 | 0.00 | 1.70 | 0.00 | 96 | 1013.0 |
| 20260503000412 | 13 | 79 | 4.8 | 11.3 | 0.00 | 1.70 | 0.00 | 96 | 1013.1 |
| 20260502235910 | 13 | 63 | 4.8 | 11.3 | 0.00 | 1.70 | 0.00 | 96 | 1013.0 |
| 20260502235438 | 14 | 82 | 4.8 | 9.7 | 0.00 | 1.70 | 0.00 | 96 | 1013.2 |
| 20260502234411 | 14 | 86 | 6.4 | 9.7 | 0.00 | 1.70 | 0.00 | 96 | 1013.2 |
| 20260502233910 | 14 | 67 | 4.8 | 9.7 | 0.00 | 1.70 | 0.00 | 96 | 1013.4 |
| 20260502233408 | 14 | 66 | 4.8 | 11.3 | 0.00 | 1.70 | 0.00 | 96 | 1013.4 |
| 20260502232935 | 14 | 63 | 4.8 | 14.5 | 0.00 | 1.70 | 0.00 | 96 | 1013.5 |
| 20260502231911 | 14 | 68 | 3.2 | 9.7 | 0.00 | 1.70 | 0.00 | 96 | 1013.8 |
| 20260502231409 | 14 | 123 | 1.6 | 8.0 | 0.00 | 1.70 | 0.00 | 96 | 1013.9 |
| 20260502230908 | 14 | 101 | 3.2 | 11.3 | 0.00 | 1.70 | 0.00 | 96 | 1013.8 |
| 20260502230419 | 14 | 87 | 8.0 | 14.5 | 0.00 | 1.70 | 0.00 | 95 | 1013.7 |
| 20260502225908 | 14 | 41 | 8.0 | 14.5 | 0.00 | 1.70 | 0.00 | 95 | 1013.7 |
| 20260502225409 | 14 | 58 | 6.4 | 12.9 | 0.00 | 1.70 | 0.00 | 95 | 1013.8 |
| 20260502224910 | 14 | 142 | 6.4 | 12.9 | 0.00 | 1.70 | 0.00 | 95 | 1014.0 |
| 20260502224409 | 14 | 80 | 6.4 | 12.9 | 0.00 | 1.70 | 0.00 | 95 | 1013.8 |
| 20260502223937 | 14 | 66 | 6.4 | 12.9 | 0.00 | 1.70 | 0.00 | 95 | 1014.0 |
| 20260502222909 | 14 | 59 | 4.8 | 11.3 | 0.03 | 1.70 | 0.00 | 95 | 1014.0 |
| 20260502222436 | 14 | 79 | 6.4 | 11.3 | 0.08 | 1.70 | 0.00 | 94 | 1014.0 |
| 20260502221407 | 14 | 54 | 4.8 | 9.7 | 0.18 | 1.70 | 0.00 | 94 | 1014.0 |
| 20260502220908 | 14 | 57 | 4.8 | 9.7 | 0.23 | 1.70 | 0.00 | 94 | 1013.9 |
| 20260502220403 | 14 | 51 | 4.8 | 9.7 | 0.25 | 1.70 | 0.00 | 94 | 1014.0 |
| 20260502215904 | 14 | 71 | 6.4 | 9.7 | 0.36 | 1.70 | 1.70 | 94 | 1013.9 |
| 20260502215406 | 14 | 56 | 6.4 | 9.7 | 0.48 | 1.70 | 1.70 | 94 | 1013.9 |
| 20260502214951 | 14 | 62 | 6.4 | 12.9 | 0.69 | 1.70 | 1.70 | 93 | 1014.0 |
| 20260502213903 | 14 | 33 | 4.8 | 8.0 | 1.68 | 1.70 | 1.70 | 93 | 1014.1 |
| 20260502213517 | 14 | 4 | 6.4 | 11.3 | 1.68 | 1.70 | 1.68 | 92 | 1014.2 |
| 20260502211931 | 15 | 19 | 4.8 | 8.0 | 1.55 | 1.55 | 1.55 | 91 | 1014.8 |
| 20260502210901 | 15 | 99 | 3.2 | 9.7 | 1.45 | 1.47 | 1.47 | 90 | 1015.5 |
| 20260502210444 | 15 | 164 | 6.4 | 11.3 | 1.42 | 1.45 | 1.42 | 89 | 1015.8 |
| 20260502205403 | 15 | 183 | 8.0 | 37.0 | 1.19 | 1.22 | 1.19 | 87 | 1015.9 |
| 20260502204930 | 16 | 222 | 17.7 | 45.1 | 0.99 | 0.99 | 0.97 | 85 | 1016.0 |
| 20260502203857 | 17 | 243 | 16.1 | 41.8 | 0.00 | 0.03 | 0.03 | 73 | 1015.6 |
| 20260502203359 | 17 | 235 | 8.0 | 19.3 | 0.00 | 0.03 | 0.03 | 69 | 1015.1 |
| 20260502202857 | 17 | 235 | 6.4 | 16.1 | 0.00 | 0.03 | 0.03 | 69 | 1014.4 |
| 20260502202442 | 17 | 320 | 6.4 | 16.1 | 0.00 | 0.03 | 0.03 | 68 | 1014.2 |
| 20260502201359 | 17 | 1 | 8.0 | 19.3 | 0.00 | 0.03 | 0.03 | 68 | 1014.3 |
| 20260502200858 | 17 | 357 | 4.8 | 12.9 | 0.00 | 0.03 | 0.03 | 68 | 1014.4 |
| 20260502200404 | 17 | 356 | 4.8 | 11.3 | 0.00 | 0.03 | 0.03 | 68 | 1014.3 |
| 20260502195911 | 17 | 351 | 4.8 | 11.3 | 0.00 | 0.03 | 0.03 | 68 | 1014.5 |
| 20260502195400 | 17 | 29 | 6.4 | 11.3 | 0.00 | 0.03 | 0.03 | 68 | 1014.5 |
| 20260502194900 | 17 | 9 | 6.4 | 12.9 | 0.00 | 0.03 | 0.03 | 68 | 1014.5 |
| 20260502194402 | 17 | 13 | 8.0 | 14.5 | 0.00 | 0.03 | 0.03 | 68 | 1014.6 |
| 20260502193856 | 17 | 1 | 8.0 | 16.1 | 0.00 | 0.03 | 0.03 | 67 | 1014.6 |
| 20260502193357 | 17 | 48 | 8.0 | 16.1 | 0.00 | 0.03 | 0.03 | 68 | 1014.6 |
| 20260502192858 | 17 | 23 | 8.0 | 16.1 | 0.00 | 0.03 | 0.03 | 68 | 1014.7 |
| 20260502192356 | 17 | 7 | 6.4 | 12.9 | 0.00 | 0.03 | 0.03 | 68 | 1014.8 |
| 20260502191854 | 17 | 335 | 6.4 | 12.9 | 0.00 | 0.03 | 0.03 | 68 | 1014.7 |
| 20260502191355 | 17 | 335 | 6.4 | 14.5 | 0.00 | 0.03 | 0.03 | 67 | 1014.7 |
| 20260502190851 | 17 | 345 | 8.0 | 14.5 | 0.00 | 0.03 | 0.03 | 67 | 1014.8 |
| 20260502190352 | 17 | 330 | 8.0 | 14.5 | 0.00 | 0.03 | 0.03 | 67 | 1014.8 |
| 20260502185933 | 17 | 346 | 9.7 | 16.1 | 0.00 | 0.03 | 0.03 | 67 | 1014.8 |
| 20260502184850 | 18 | 351 | 9.7 | 19.3 | 0.00 | 0.03 | 0.03 | 67 | 1014.8 |
| 20260502184350 | 18 | 351 | 9.7 | 17.7 | 0.00 | 0.03 | 0.03 | 67 | 1015.0 |
| 20260502183925 | 18 | 347 | 8.0 | 16.1 | 0.00 | 0.03 | 0.03 | 67 | 1014.9 |
| 20260502182349 | 18 | 358 | 8.0 | 20.9 | 0.00 | 0.03 | 0.03 | 67 | 1014.7 |
| 20260502181850 | 18 | 7 | 8.0 | 16.1 | 0.00 | 0.03 | 0.03 | 68 | 1014.8 |
| 20260502181354 | 19 | 15 | 8.0 | 16.1 | 0.00 | 0.03 | 0.03 | 68 | 1014.9 |
| 20260502180848 | 19 | 335 | 9.7 | 16.1 | 0.00 | 0.03 | 0.03 | 67 | 1014.9 |
| 20260502180348 | 20 | 21 | 8.0 | 16.1 | 0.00 | 0.03 | 0.03 | 66 | 1014.9 |
| 20260502170351 | 21 | 335 | 6.4 | 12.9 | 0.00 | 0.03 | 0.03 | 59 | 1015.0 |
| 20260502164346 | 21 | 320 | 6.4 | 12.9 | 0.00 | 0.03 | 0.03 | 58 | 1015.5 |
| 20260502163845 | 21 | 271 | 6.4 | 12.9 | 0.00 | 0.03 | 0.03 | 57 | 1015.6 |
| 20260502163346 | 21 | 318 | 4.8 | 12.9 | 0.00 | 0.03 | 0.03 | 60 | 1015.6 |
| 20260502162846 | 21 | 342 | 4.8 | 11.3 | 0.00 | 0.03 | 0.03 | 59 | 1015.8 |
| 20260502162455 | 21 | 330 | 6.4 | 12.9 | 0.00 | 0.03 | 0.03 | 59 | 1015.8 |
| 20260502160848 | 21 | 330 | 4.8 | 14.5 | 0.00 | 0.03 | 0.03 | 62 | 1015.9 |
| 20260502160420 | 21 | 339 | 6.4 | 12.9 | 0.00 | 0.03 | 0.03 | 59 | 1016.0 |
| 20260502151845 | 22 | 353 | 4.8 | 11.3 | 0.00 | 0.03 | 0.03 | 59 | 1016.4 |
| 20260502151344 | 22 | 241 | 4.8 | 14.5 | 0.00 | 0.03 | 0.03 | 59 | 1016.5 |
| 20260502150839 | 22 | 254 | 4.8 | 14.5 | 0.00 | 0.03 | 0.03 | 61 | 1016.6 |
| 20260502150340 | 22 | 224 | 8.0 | 17.7 | 0.00 | 0.03 | 0.03 | 61 | 1016.7 |
| 20260502130332 | 22 | 237 | 8.0 | 16.1 | 0.00 | 0.03 | 0.03 | 69 | 1018.0 |
| 20260502123332 | 21 | 208 | 11.3 | 22.5 | 0.00 | 0.03 | 0.03 | 72 | 1018.0 |
| 20260502122832 | 21 | 254 | 9.7 | 22.5 | 0.00 | 0.03 | 0.03 | 72 | 1018.2 |
| 20260502122331 | 21 | 230 | 9.7 | 17.7 | 0.00 | 0.03 | 0.03 | 71 | 1018.2 |
| 20260502121833 | 21 | 229 | 11.3 | 27.4 | 0.00 | 0.03 | 0.03 | 72 | 1018.3 |
| 20260502121333 | 21 | 215 | 9.7 | 27.4 | 0.00 | 0.03 | 0.03 | 70 | 1018.3 |
| 20260502120901 | 21 | 168 | 9.7 | 20.9 | 0.00 | 0.03 | 0.03 | 72 | 1018.4 |
| 20260502115832 | 21 | 238 | 9.7 | 22.5 | 0.00 | 0.03 | 0.03 | 73 | 1018.4 |
| 20260502115332 | 21 | 185 | 11.3 | 24.1 | 0.00 | 0.03 | 0.03 | 71 | 1018.5 |
| 20260502114831 | 21 | 227 | 8.0 | 24.1 | 0.00 | 0.03 | 0.03 | 70 | 1018.6 |
| 20260502114331 | 21 | 258 | 8.0 | 17.7 | 0.00 | 0.03 | 0.03 | 71 | 1018.7 |
| 20260502113833 | 21 | 224 | 9.7 | 22.5 | 0.00 | 0.03 | 0.03 | 72 | 1018.6 |
| 20260502113331 | 21 | 213 | 9.7 | 22.5 | 0.00 | 0.03 | 0.03 | 71 | 1018.7 |
| 20260502112832 | 21 | 164 | 11.3 | 19.3 | 0.00 | 0.03 | 0.03 | 73 | 1018.8 |
| 20260502112334 | 20 | 233 | 9.7 | 20.9 | 0.00 | 0.03 | 0.03 | 74 | 1018.8 |
| 20260502111937 | 20 | 260 | 11.3 | 27.4 | 0.00 | 0.03 | 0.03 | 74 | 1019.0 |
| 20260502110347 | 21 | 235 | 8.0 | 19.3 | 0.00 | 0.03 | 0.03 | 72 | 1018.9 |
| 20260502105831 | 21 | 202 | 8.0 | 17.7 | 0.00 | 0.03 | 0.03 | 73 | 1019.0 |
| 20260502105410 | 20 | 206 | 8.0 | 17.7 | 0.00 | 0.03 | 0.03 | 74 | 1019.0 |
| 20260502104330 | 20 | 239 | 8.0 | 16.1 | 0.00 | 0.03 | 0.03 | 73 | 1019.1 |
| 20260502103830 | 20 | 252 | 8.0 | 16.1 | 0.00 | 0.03 | 0.03 | 74 | 1019.1 |
| 20260502103336 | 20 | 237 | 8.0 | 22.5 | 0.00 | 0.03 | 0.03 | 75 | 1019.2 |
| 20260502102830 | 20 | 138 | 9.7 | 22.5 | 0.00 | 0.03 | 0.03 | 75 | 1019.3 |
| 20260502102408 | 20 | 179 | 9.7 | 19.3 | 0.00 | 0.03 | 0.03 | 75 | 1019.3 |
| 20260502101405 | 19 | 236 | 8.0 | 16.1 | 0.00 | 0.03 | 0.03 | 77 | 1019.3 |
| 20260502100410 | 20 | 176 | 8.0 | 16.1 | 0.00 | 0.03 | 0.03 | 76 | 1019.3 |
| 20260502091327 | 18 | 254 | 6.4 | 12.9 | 0.00 | 0.03 | 0.03 | 79 | 1019.5 |
| 20260502090825 | 18 | 225 | 6.4 | 14.5 | 0.00 | 0.03 | 0.03 | 80 | 1019.5 |
| 20260502090436 | 18 | 164 | 4.8 | 14.5 | 0.00 | 0.03 | 0.03 | 81 | 1019.6 |
| 20260502070849 | 13 | 96 | 1.6 | 4.8 | 0.03 | 0.03 | 0.03 | 85 | 1019.0 |
| 20260502065815 | 13 | 358 | 0.0 | 1.6 | 0.03 | 0.03 | 0.03 | 84 | 1019.2 |
| 20260502065315 | 13 | 358 | 0.0 | 1.6 | 0.03 | 0.03 | 0.03 | 84 | 1019.2 |
| 20260502064813 | 13 | 358 | 1.6 | 4.8 | 0.03 | 0.03 | 0.03 | 83 | 1019.2 |
| 20260502064313 | 13 | 358 | 1.6 | 4.8 | 0.03 | 0.03 | 0.03 | 83 | 1019.0 |
| 20260502063812 | 13 | 294 | 0.0 | 1.6 | 0.03 | 0.03 | 0.03 | 81 | 1019.0 |
| 20260502063315 | 13 | 294 | 1.6 | 4.8 | 0.03 | 0.03 | 0.03 | 80 | 1019.2 |
| 20260502062814 | 13 | 294 | 3.2 | 4.8 | 0.03 | 0.03 | 0.03 | 78 | 1019.2 |
| 20260502062315 | 14 | 228 | 1.6 | 4.8 | 0.03 | 0.03 | 0.03 | 77 | 1019.4 |
| 20260502061835 | 14 | 201 | 1.6 | 8.0 | 0.00 | 0.00 | 0.00 | 75 | 1019.5 |
| 20260502060809 | 13 | 212 | 4.8 | 9.7 | 0.00 | 0.00 | 0.00 | 74 | 1019.6 |
| 20260502060347 | 13 | 186 | 4.8 | 8.0 | 0.00 | 0.00 | 0.00 | 74 | 1019.6 |
| 20260502055309 | 13 | 181 | 3.2 | 9.7 | 0.00 | 0.00 | 0.00 | 76 | 1019.5 |
| 20260502054808 | 12 | 174 | 1.6 | 6.4 | 0.00 | 0.00 | 0.00 | 76 | 1019.5 |
| 20260502054310 | 12 | 199 | 0.0 | 4.8 | 0.00 | 0.00 | 0.00 | 76 | 1019.5 |
| 20260502053836 | 12 | 199 | 0.0 | 1.6 | 0.00 | 0.00 | 0.00 | 75 | 1019.3 |
| 20260502052808 | 12 | 199 | 0.0 | 3.2 | 0.00 | 0.00 | 0.00 | 73 | 1019.3 |
| 20260502052306 | 12 | 199 | 1.6 | 3.2 | 0.00 | 0.00 | 0.00 | 73 | 1019.3 |
| 20260502051806 | 12 | 200 | 1.6 | 4.8 | 0.00 | 0.00 | 0.00 | 73 | 1019.4 |
| 20260502051306 | 12 | 199 | 1.6 | 4.8 | 0.00 | 0.00 | 0.00 | 73 | 1019.3 |
| 20260502050811 | 12 | 199 | 1.6 | 4.8 | 0.00 | 0.00 | 0.00 | 73 | 1019.3 |
| 20260502050306 | 12 | 199 | 0.0 | 4.8 | 0.00 | 0.00 | 0.00 | 72 | 1019.2 |
| 20260502045806 | 12 | 199 | 1.6 | 4.8 | 0.00 | 0.00 | 0.00 | 72 | 1019.2 |
| 20260502045306 | 12 | 199 | 1.6 | 4.8 | 0.00 | 0.00 | 0.00 | 71 | 1019.2 |
| 20260502044807 | 12 | 205 | 1.6 | 4.8 | 0.00 | 0.00 | 0.00 | 71 | 1019.1 |
| 20260502044304 | 12 | 227 | 3.2 | 6.4 | 0.00 | 0.00 | 0.00 | 71 | 1019.2 |
| 20260502043807 | 12 | 199 | 1.6 | 6.4 | 0.00 | 0.00 | 0.00 | 72 | 1019.2 |
| 20260502043310 | 12 | 218 | 3.2 | 9.7 | 0.00 | 0.00 | 0.00 | 72 | 1019.2 |
| 20260502042807 | 12 | 189 | 4.8 | 9.7 | 0.00 | 0.00 | 0.00 | 73 | 1019.3 |
| 20260502042306 | 11 | 224 | 3.2 | 8.0 | 0.00 | 0.00 | 0.00 | 75 | 1019.3 |
| 20260502041805 | 11 | 212 | 1.6 | 8.0 | 0.00 | 0.00 | 0.00 | 75 | 1019.3 |
| 20260502041332 | 11 | 293 | 3.2 | 8.0 | 0.00 | 0.00 | 0.00 | 75 | 1019.0 |
| 20260502040337 | 11 | 163 | 3.2 | 4.8 | 0.00 | 0.00 | 0.00 | 75 | 1019.1 |
| 20260502035306 | 11 | 170 | 1.6 | 4.8 | 0.00 | 0.00 | 0.00 | 75 | 1019.2 |
| 20260502034805 | 11 | 173 | 1.6 | 4.8 | 0.00 | 0.00 | 0.00 | 75 | 1019.2 |
| 20260502034303 | 11 | 162 | 1.6 | 6.4 | 0.00 | 0.00 | 0.00 | 75 | 1019.1 |
| 20260502033805 | 11 | 160 | 1.6 | 6.4 | 0.00 | 0.00 | 0.00 | 75 | 1019.2 |
| 20260502033339 | 11 | 199 | 1.6 | 8.0 | 0.00 | 0.00 | 0.00 | 74 | 1019.3 |
| 20260502032309 | 11 | 116 | 3.2 | 8.0 | 0.00 | 0.00 | 0.00 | 74 | 1019.3 |
| 20260502031806 | 11 | 112 | 1.6 | 8.0 | 0.00 | 0.00 | 0.00 | 74 | 1019.2 |
| 20260502031303 | 11 | 172 | 1.6 | 3.2 | 0.00 | 0.00 | 0.00 | 74 | 1019.4 |
| 20260502030807 | 11 | 141 | 3.2 | 8.0 | 0.00 | 0.00 | 0.00 | 74 | 1019.3 |
| 20260502030344 | 11 | 160 | 3.2 | 8.0 | 0.00 | 0.00 | 0.00 | 75 | 1019.4 |